Terminal Aerodrome Forecast
Issued by NWS Louisville, KY

Home | Current Version | Previous Version | Text Only | Print | Product List | Glossary On
Versions: 1 2 3 4 5 6 7 8 9 10 11 12 13 14 15 16 17 18 19 20 21 22 23 24 25 26 27 28 29 30 31
000
FTUS43 KLMK 022300
TAFSDF
TAF
KSDF 022320Z 0300/0406 33008KT P6SM SCT060 SCT250
     FM030300 32003KT P6SM FEW250
     FM030900 VRB03KT 5SM BR SCT009
     FM031400 22005KT P6SM SCT050=

USA.gov is the U.S. government's official web portal to all federal, state and local government web resources and services.